This is the latest recevied weather packets stored in our database for station/object KB3HLL. If no packets are shown the sender has not sent any weather packets the latest 10 day(s).
| Time | Temp. | Humidity | Pressure | Rain* | Wind** | Luminosity | Snow |
|---|---|---|---|---|---|---|---|
| 1777217478 | 5° C | 100% | 1018.3 hPa | 0 mm | - | 762 W/m² | - |
| 1777217177 | 5° C | 100% | 1018.2 hPa | 0 mm | - | 945 W/m² | - |
| 1777216878 | 5° C | 100% | 1018.4 hPa | 0 mm | - | 663 W/m² | - |
| 1777216578 | 5° C | 100% | 1018.5 hPa | 0 mm | - | 734 W/m² | - |
| 1777216278 | 4.44° C | 100% | 1018.4 hPa | 0 mm | - | 558 W/m² | - |
| 1777215978 | 5° C | 100% | 1018.4 hPa | 0 mm | - | 541 W/m² | - |
| 1777215678 | 4.44° C | 100% | 1018.3 hPa | 0 mm | - | 523 W/m² | - |
| 1777215378 | 4.44° C | 100% | 1018.3 hPa | 0 mm | - | 535 W/m² | - |
| 1777215078 | 4.44° C | 100% | 1018.3 hPa | 0 mm | - | 309 W/m² | - |
| 1777214778 | 4.44° C | 100% | 1018.2 hPa | 0 mm | - | 379 W/m² | - |
| 1777214477 | 4.44° C | 100% | 1018.2 hPa | 0 mm | - | 453 W/m² | - |
| 1777214178 | 4.44° C | 100% | 1018.2 hPa | 0 mm | - | 356 W/m² | - |
| 1777213878 | 4.44° C | 100% | 1018.2 hPa | 0 mm | - | 384 W/m² | - |
| 1777213577 | 3.89° C | 100% | 1018.2 hPa | 0 mm | - | 382 W/m² | - |
| 1777213278 | 3.89° C | 100% | 1018.2 hPa | 0 mm | - | 408 W/m² | - |
| 1777212978 | 3.89° C | 100% | 1018.3 hPa | 0 mm | - | 345 W/m² | - |
| 1777212677 | 3.89° C | 100% | 1018.3 hPa | 0 mm | - | 248 W/m² | - |
| 1777212379 | 3.89° C | 100% | 1018.1 hPa | 0 mm | - | 159 W/m² | - |
| 1777212077 | 3.89° C | 100% | 1017.9 hPa | 0 mm | - | 337 W/m² | - |
| 1777211777 | 3.89° C | 100% | 1017.9 hPa | 0 mm | - | 336 W/m² | - |
| 1777211477 | 3.89° C | 100% | 1017.9 hPa | 0 mm | - | 156 W/m² | - |
| 1777211177 | 3.89° C | 100% | 1017.9 hPa | 0 mm | - | 222 W/m² | - |
| 1777210878 | 3.89° C | 100% | 1018 hPa | 0 mm | - | 140 W/m² | - |
| 1777210578 | 3.89° C | 100% | 1017.9 hPa | 0 mm | - | 124 W/m² | - |
| 1777210278 | 3.89° C | 100% | 1018 hPa | 0 mm | - | 204 W/m² | - |
* Rain latest hour (hover to see other rain measurements)
** Current wind speed in m/s (hover to see current wind gust speed)